Location: Paralde Spring
(38.5794°N, 119.0140°W)
Time: 18:20:41
(UTC+00:00)

CZ-4C R/B - Pass Details

Date: 18 September 2020
Orbit: 407 x 492 km, 97.7° (Epoch: 19 October)

Event Time Altitude Azimuth Distance (km) Brightness Sun altitude
Exits shadow 12:06:04 39° 308° (NW) 752 3.7 -19.0°
Drops below altitude 10° 12:08:40 10° 337° (NNW) 1,680 5.7 -18.5°
Sets 12:10:46 0° 343° (NNW) 2,558 6.7 -18.1°
